Location: Biltmore Gardens
(41.6070°N, 83.4666°W)
Time: 14:52:41
(UTC+00:00)

Cosmos 2366 rocket - Pass Details

Date: 14 July 2020
Orbit: 954 x 998 km, 82.9° (Epoch: 12 August)

Event Time Altitude Azimuth Distance (km) Brightness Sun altitude
Exits shadow 04:03:44 47° 155° (SSE) 1,303 4.2 -23.0°
Maximum altitude 04:05:33 67° 93° (E) 1,077 4.0 -23.1°
Drops below altitude 10° 04:11:49 10° 13° (NNE) 2,761 7.1 -23.6°
Sets 04:14:21 0° 11° (N) 3,708 7.9 -23.8°
